Voltar ao catálogo

MUOS 3

AtivoMilitarGEO
NORAD 40374·PAYLOAD·🇺🇸 United States

Lançado Jan 21, 2015 de Cape Canaveral Space Force Station

Loading…

TLE

AtualizadoSource: Space-Track

Época: Sep 14, 2026, 06:53 UTC

1 40374U 15002A   26257.28686436 -.00000135  00000-0  00000-0 0  9991
2 40374   4.6912  43.7843 0057874 178.4783 218.7851  1.00273608 42487

Acompanhe MUOS 3 em tempo real com AllMySat

Download on the App Store